KLM57K EHAM-TNCC

Flight info

Callsign KLM57K
Flight time N/A
Altitude 34000
Route BERGI L60 PENIL M144 BAGSO DCT GIMRO DCT LIMRI/M086F360 DCT 52N020W 51N030W 49N040W 47N050W DCT PORTI DCT LOMPI/M085F380 M202 JEBBY DCT 40N060W DCT BDA DCT GECAL L458 CHEDR/N0491F380 L458 THANK DCT SCAPA SCAPA1B
Aircraft B78X/H-SDE1E2E3FGHIJ2J3J4J5M1RWXY/LB1D1

Departure

Time N/A
Airport Amsterdam Airport Schiphol (EHAM)

Arrival

Time 2026-05-08 17:26
Airport Hato International Airport (TNCC)
Time Latitude Longitude Altitude Speed Heading
2026-05-08 14:34 34.44476 -63.50981 39474 ft 451 kts 214°
2026-05-08 14:35 34.41650 -63.52626 39754 ft 451 kts 214°
2026-05-08 14:35 34.38822 -63.54273 39917 ft 453 kts 214°
2026-05-08 14:35 34.33186 -63.57544 39916 ft 447 kts 214°
2026-05-08 14:36 34.27599 -63.60793 39921 ft 449 kts 214°
2026-05-08 14:36 34.21966 -63.64053 39930 ft 449 kts 214°
2026-05-08 14:37 34.16332 -63.67316 39927 ft 449 kts 214°
2026-05-08 14:37 34.10694 -63.70572 39931 ft 449 kts 214°
2026-05-08 14:38 34.05048 -63.73830 39928 ft 450 kts 214°
2026-05-08 14:38 33.99434 -63.77064 39932 ft 451 kts 213°
2026-05-08 14:39 33.93777 -63.80318 39933 ft 451 kts 213°
2026-05-08 14:39 33.88113 -63.83571 39939 ft 451 kts 213°
2026-05-08 14:40 33.82450 -63.86819 39942 ft 451 kts 213°
2026-05-08 14:40 33.76822 -63.90042 39947 ft 451 kts 213°
2026-05-08 14:41 33.71147 -63.93287 39944 ft 452 kts 213°
2026-05-08 14:41 33.65471 -63.96528 39949 ft 452 kts 213°
2026-05-08 14:42 33.59860 -63.99728 39950 ft 454 kts 213°
2026-05-08 14:42 33.54074 -64.03027 39963 ft 467 kts 213°
2026-05-08 14:43 33.48182 -64.06373 39972 ft 478 kts 212°
2026-05-08 14:43 33.42106 -64.09823 39970 ft 488 kts 212°
2026-05-08 14:44 33.35959 -64.13301 39970 ft 488 kts 212°
2026-05-08 14:44 33.29961 -64.16697 39974 ft 485 kts 212°
2026-05-08 14:45 33.23890 -64.20126 39963 ft 483 kts 212°
2026-05-08 14:45 33.17809 -64.23558 39958 ft 483 kts 212°
2026-05-08 14:46 33.11727 -64.26982 39966 ft 484 kts 212°
2026-05-08 14:46 33.05636 -64.30408 39969 ft 484 kts 212°
2026-05-08 14:47 32.99583 -64.33806 39967 ft 484 kts 212°
2026-05-08 14:47 32.93494 -64.37221 39969 ft 484 kts 212°
2026-05-08 14:48 32.87398 -64.40633 39976 ft 484 kts 212°
2026-05-08 14:48 32.81296 -64.44044 39973 ft 485 kts 212°
2026-05-08 14:49 32.75179 -64.47457 39974 ft 485 kts 212°
2026-05-08 14:49 32.69109 -64.50839 39972 ft 485 kts 212°
2026-05-08 14:50 32.62992 -64.54243 39978 ft 485 kts 212°
2026-05-08 14:50 32.56876 -64.57641 39981 ft 486 kts 212°
2026-05-08 14:51 32.50749 -64.61039 39984 ft 487 kts 212°
2026-05-08 14:51 32.44649 -64.64418 39990 ft 487 kts 212°
2026-05-08 14:52 32.35291 -64.69194 40013 ft 497 kts 202°
2026-05-08 14:53 32.28485 -64.71002 39995 ft 501 kts 200°
2026-05-08 14:53 32.21711 -64.72736 40002 ft 502 kts 199°
2026-05-08 14:54 32.14886 -64.74482 39996 ft 502 kts 199°
2026-05-08 14:54 32.08060 -64.76227 40000 ft 502 kts 199°
2026-05-08 14:55 32.01315 -64.77947 40001 ft 502 kts 199°
2026-05-08 14:55 31.94485 -64.79688 40003 ft 503 kts 199°
2026-05-08 14:56 31.87693 -64.81415 40004 ft 503 kts 199°
2026-05-08 14:56 31.80944 -64.83130 40009 ft 503 kts 199°
2026-05-08 14:57 31.74113 -64.84862 40012 ft 503 kts 199°
2026-05-08 14:57 31.67365 -64.86571 40011 ft 503 kts 199°
2026-05-08 14:58 31.60620 -64.88276 40013 ft 503 kts 199°
2026-05-08 14:58 31.53828 -64.89991 40015 ft 503 kts 199°
2026-05-08 14:59 31.46990 -64.91715 40022 ft 502 kts 199°
2026-05-08 14:59 31.36738 -64.94295 40027 ft 503 kts 199°
2026-05-08 15:00 31.29899 -64.96012 40026 ft 502 kts 199°
2026-05-08 15:00 31.23100 -64.97718 40025 ft 503 kts 199°
2026-05-08 15:01 31.16253 -64.99432 40033 ft 504 kts 199°
2026-05-08 15:01 31.09393 -65.01148 40030 ft 504 kts 199°
2026-05-08 15:02 31.02532 -65.02861 40028 ft 505 kts 199°
2026-05-08 15:02 30.95709 -65.04562 40031 ft 505 kts 199°
2026-05-08 15:03 30.88836 -65.06273 40031 ft 506 kts 199°
2026-05-08 15:03 30.81946 -65.07986 40031 ft 507 kts 199°
2026-05-08 15:04 30.75046 -65.09699 40045 ft 508 kts 199°
2026-05-08 15:04 30.68224 -65.11389 40045 ft 508 kts 199°
2026-05-08 15:05 30.61339 -65.13093 40035 ft 509 kts 199°
2026-05-08 15:05 30.54407 -65.14806 40039 ft 510 kts 199°
2026-05-08 15:06 30.47471 -65.16518 40040 ft 510 kts 199°
2026-05-08 15:06 30.40528 -65.18229 40042 ft 510 kts 199°
2026-05-08 15:07 30.33588 -65.19936 40044 ft 510 kts 199°
2026-05-08 15:07 30.26686 -65.21632 40047 ft 511 kts 199°
2026-05-08 15:08 30.20908 -65.23050 40047 ft 511 kts 199°
2026-05-08 15:08 30.12773 -65.25043 40049 ft 511 kts 199°
2026-05-08 15:09 30.05807 -65.26747 40048 ft 512 kts 199°
2026-05-08 15:09 29.98884 -65.28439 40051 ft 512 kts 199°
2026-05-08 15:10 29.91906 -65.30141 40054 ft 513 kts 199°
2026-05-08 15:10 29.84915 -65.31844 40058 ft 514 kts 199°
2026-05-08 15:11 29.77919 -65.33546 40062 ft 514 kts 199°
2026-05-08 15:11 29.70955 -65.35237 40052 ft 515 kts 198°
2026-05-08 15:12 29.63946 -65.36937 40057 ft 515 kts 198°
2026-05-08 15:12 29.56922 -65.38638 40062 ft 515 kts 198°
2026-05-08 15:13 29.49903 -65.40336 40064 ft 516 kts 198°
2026-05-08 15:13 29.42914 -65.42000 40062 ft 518 kts 194°
2026-05-08 15:14 29.35671 -65.42723 40074 ft 524 kts 190°
2026-05-08 15:14 29.28401 -65.43325 40077 ft 524 kts 190°
2026-05-08 15:15 29.21142 -65.43949 40080 ft 524 kts 190°
2026-05-08 15:15 29.13872 -65.44560 40073 ft 524 kts 190°
2026-05-08 15:16 29.06655 -65.45172 40069 ft 524 kts 190°
2026-05-08 15:16 28.99413 -65.45783 40064 ft 524 kts 190°
2026-05-08 15:17 28.92143 -65.46396 40070 ft 524 kts 190°
2026-05-08 15:17 28.84867 -65.47009 40067 ft 524 kts 190°
2026-05-08 15:18 28.77636 -65.47617 40068 ft 524 kts 190°
2026-05-08 15:18 28.70363 -65.48228 40073 ft 524 kts 190°
2026-05-08 15:19 28.63085 -65.48838 40073 ft 524 kts 190°
2026-05-08 15:19 28.55808 -65.49448 40071 ft 525 kts 190°
2026-05-08 15:20 28.48524 -65.50057 40069 ft 525 kts 190°
2026-05-08 15:20 28.41365 -65.50656 40081 ft 529 kts 190°
2026-05-08 15:21 28.34023 -65.51266 40076 ft 527 kts 189°
2026-05-08 15:21 28.26698 -65.51878 40074 ft 528 kts 189°
2026-05-08 15:22 28.19377 -65.52486 40073 ft 528 kts 189°
2026-05-08 15:22 28.12095 -65.53091 40072 ft 528 kts 189°
2026-05-08 15:23 28.04766 -65.53699 40075 ft 528 kts 189°
2026-05-08 15:23 27.97533 -65.54298 40080 ft 528 kts 189°
2026-05-08 15:24 27.90203 -65.54904 40077 ft 529 kts 189°
2026-05-08 15:24 27.82908 -65.55507 40081 ft 529 kts 189°
2026-05-08 15:25 27.75566 -65.56112 40074 ft 529 kts 189°
2026-05-08 15:25 27.68221 -65.56718 40080 ft 530 kts 189°
2026-05-08 15:26 27.62102 -65.57221 40082 ft 530 kts 189°
2026-05-08 15:26 27.54752 -65.57825 40080 ft 530 kts 189°
2026-05-08 15:27 27.46200 -65.58527 40083 ft 530 kts 189°
2026-05-08 15:27 27.38845 -65.59129 40082 ft 530 kts 189°
2026-05-08 15:28 27.32731 -65.59630 40084 ft 530 kts 189°
2026-05-08 15:28 27.24175 -65.60329 40085 ft 531 kts 189°
2026-05-08 15:29 27.16812 -65.60930 40084 ft 531 kts 189°
2026-05-08 15:29 27.09445 -65.61531 40087 ft 531 kts 188°
2026-05-08 15:30 27.03324 -65.62029 40088 ft 531 kts 188°
2026-05-08 15:30 26.95952 -65.62628 40089 ft 531 kts 188°
2026-05-08 15:31 26.88539 -65.63231 40091 ft 535 kts 188°
2026-05-08 15:31 26.81158 -65.63827 40087 ft 531 kts 188°
2026-05-08 15:32 26.73831 -65.64423 40089 ft 532 kts 188°
2026-05-08 15:32 26.66447 -65.65019 40086 ft 532 kts 188°
2026-05-08 15:33 26.59061 -65.65616 40086 ft 532 kts 188°
2026-05-08 15:33 26.51669 -65.66212 40091 ft 533 kts 188°
2026-05-08 15:34 26.44318 -65.66805 40091 ft 533 kts 188°
2026-05-08 15:34 26.36924 -65.67400 40091 ft 534 kts 188°
2026-05-08 15:35 26.29511 -65.67995 40090 ft 534 kts 188°
2026-05-08 15:35 26.22096 -65.68591 40093 ft 534 kts 188°
2026-05-08 15:36 26.14776 -65.69177 40089 ft 530 kts 188°
2026-05-08 15:36 26.07411 -65.69767 40090 ft 530 kts 188°
2026-05-08 15:37 26.00026 -65.70351 40088 ft 532 kts 188°
2026-05-08 15:37 25.92637 -65.70952 40090 ft 532 kts 188°
2026-05-08 15:38 25.85287 -65.71532 40091 ft 532 kts 187°
2026-05-08 15:38 25.77905 -65.72123 40093 ft 532 kts 187°
2026-05-08 15:39 25.70503 -65.72710 40087 ft 532 kts 187°
2026-05-08 15:39 25.63120 -65.73298 40091 ft 532 kts 187°
2026-05-08 15:40 25.55754 -65.73882 40094 ft 532 kts 187°
2026-05-08 15:40 25.48362 -65.74468 40094 ft 532 kts 187°
2026-05-08 15:41 25.41009 -65.75050 40087 ft 532 kts 187°
2026-05-08 15:41 25.33622 -65.75634 40099 ft 532 kts 187°
2026-05-08 15:42 25.26218 -65.76219 40101 ft 532 kts 187°
2026-05-08 15:42 25.18821 -65.76802 40100 ft 532 kts 187°
2026-05-08 15:43 25.11465 -65.77382 40096 ft 532 kts 187°
2026-05-08 15:43 25.04067 -65.77964 40085 ft 528 kts 187°
2026-05-08 15:44 25.00448 -65.78246 40078 ft 514 kts 187°
2026-05-08 15:44 24.96919 -65.78522 40102 ft 501 kts 187°
2026-05-08 15:44 24.90070 -65.79066 40097 ft 504 kts 187°
2026-05-08 15:45 24.83102 -65.79608 40092 ft 504 kts 187°
2026-05-08 15:45 24.76095 -65.80159 40085 ft 504 kts 187°
2026-05-08 15:46 24.69072 -65.80707 40097 ft 504 kts 187°
2026-05-08 15:46 24.62067 -65.81255 40093 ft 504 kts 187°
2026-05-08 15:47 24.55085 -65.81800 40088 ft 504 kts 187°
2026-05-08 15:47 24.48080 -65.82346 40089 ft 505 kts 187°
2026-05-08 15:48 24.37601 -65.83162 40096 ft 504 kts 187°
2026-05-08 15:49 24.30589 -65.83707 40094 ft 505 kts 187°
2026-05-08 15:49 24.23558 -65.84253 40092 ft 505 kts 187°
2026-05-08 15:50 24.16543 -65.84797 40087 ft 505 kts 187°
2026-05-08 15:50 24.09557 -65.85339 40090 ft 505 kts 187°
2026-05-08 15:51 24.02532 -65.85882 40092 ft 506 kts 187°
2026-05-08 15:51 23.95501 -65.86426 40089 ft 506 kts 186°
2026-05-08 15:52 23.88499 -65.86967 40085 ft 506 kts 186°
2026-05-08 15:52 23.81460 -65.87510 40094 ft 506 kts 186°
2026-05-08 15:53 23.74419 -65.88052 40087 ft 506 kts 186°
2026-05-08 15:53 23.67422 -65.88591 40086 ft 506 kts 186°
2026-05-08 15:54 23.60388 -65.89132 40087 ft 506 kts 186°
2026-05-08 15:54 23.53447 -65.89665 40093 ft 506 kts 186°
2026-05-08 15:55 23.46406 -65.90205 40091 ft 507 kts 186°
2026-05-08 15:55 23.35875 -65.91012 40089 ft 507 kts 186°
2026-05-08 15:56 23.28815 -65.91553 40085 ft 508 kts 186°
2026-05-08 15:56 23.21759 -65.92092 40086 ft 508 kts 186°
2026-05-08 15:57 23.14747 -65.92627 40086 ft 508 kts 186°
2026-05-08 15:57 23.07678 -65.93167 40079 ft 508 kts 186°
2026-05-08 15:58 23.00621 -65.93705 40082 ft 508 kts 186°
2026-05-08 15:58 22.93606 -65.94239 40081 ft 508 kts 186°
2026-05-08 15:59 22.86537 -65.94776 40084 ft 508 kts 186°
2026-05-08 15:59 22.79466 -65.95313 40078 ft 509 kts 186°
2026-05-08 16:00 22.72446 -65.95846 40083 ft 509 kts 186°
2026-05-08 16:00 22.65387 -65.96381 40082 ft 508 kts 186°
2026-05-08 16:01 22.58324 -65.96917 40090 ft 508 kts 186°
2026-05-08 16:01 22.51262 -65.97451 40090 ft 508 kts 186°
2026-05-08 16:02 22.44239 -65.97982 40088 ft 508 kts 186°
2026-05-08 16:02 22.37150 -65.98517 40090 ft 510 kts 186°
2026-05-08 16:03 22.30056 -65.99052 40089 ft 510 kts 186°
2026-05-08 16:03 22.23008 -65.99583 40089 ft 511 kts 186°
2026-05-08 16:04 22.15906 -66.00117 40086 ft 511 kts 186°
2026-05-08 16:04 22.08790 -66.00653 40090 ft 512 kts 185°
2026-05-08 16:05 22.01692 -66.01186 40088 ft 512 kts 185°
2026-05-08 16:05 21.94550 -66.01722 40084 ft 513 kts 185°
2026-05-08 16:06 21.87469 -66.02252 40087 ft 514 kts 185°
2026-05-08 16:06 21.80324 -66.02787 40084 ft 514 kts 185°
2026-05-08 16:07 21.73167 -66.03323 40089 ft 515 kts 185°
2026-05-08 16:07 21.66011 -66.03858 40086 ft 515 kts 185°
2026-05-08 16:08 21.58903 -66.04388 40088 ft 515 kts 185°
2026-05-08 16:08 21.51735 -66.04923 40083 ft 517 kts 185°
2026-05-08 16:09 21.45772 -66.05467 40101 ft 515 kts 193°
2026-05-08 16:09 21.37639 -66.07578 40087 ft 515 kts 195°
2026-05-08 16:10 21.30670 -66.09443 40083 ft 515 kts 195°
2026-05-08 16:10 21.23696 -66.11288 40090 ft 516 kts 195°
2026-05-08 16:11 21.16761 -66.13135 40089 ft 517 kts 195°
2026-05-08 16:11 21.09757 -66.14989 40086 ft 517 kts 195°
2026-05-08 16:12 21.02763 -66.16845 40080 ft 518 kts 195°
2026-05-08 16:12 20.95760 -66.18697 40080 ft 518 kts 195°
2026-05-08 16:13 20.88760 -66.20549 40080 ft 518 kts 195°
2026-05-08 16:13 20.81754 -66.22401 40079 ft 519 kts 195°
2026-05-08 16:14 20.74770 -66.24244 40081 ft 519 kts 195°
2026-05-08 16:14 20.67744 -66.26097 40079 ft 520 kts 195°
2026-05-08 16:15 20.60715 -66.27949 40079 ft 520 kts 195°
2026-05-08 16:15 20.53681 -66.29801 40078 ft 521 kts 195°
2026-05-08 16:16 20.46634 -66.31654 40078 ft 521 kts 195°
2026-05-08 16:16 20.39618 -66.33497 40075 ft 522 kts 195°
2026-05-08 16:17 20.33741 -66.35040 40078 ft 522 kts 195°
2026-05-08 16:17 20.25488 -66.37204 40071 ft 522 kts 194°
2026-05-08 16:18 20.18454 -66.39047 40073 ft 523 kts 194°
2026-05-08 16:18 20.11347 -66.40907 40074 ft 526 kts 194°
2026-05-08 16:19 20.04217 -66.42772 40075 ft 526 kts 194°
2026-05-08 16:19 19.97137 -66.44622 40072 ft 527 kts 194°
2026-05-08 16:20 19.90016 -66.46480 40069 ft 527 kts 194°
2026-05-08 16:20 19.82880 -66.48341 40069 ft 527 kts 194°
2026-05-08 16:21 19.76943 -66.49888 40069 ft 527 kts 194°
2026-05-08 16:21 19.69801 -66.51747 40065 ft 527 kts 194°
2026-05-08 16:22 19.62779 -66.53573 40065 ft 527 kts 194°
2026-05-08 16:22 19.55631 -66.55431 40060 ft 528 kts 194°
2026-05-08 16:23 19.48489 -66.57285 40056 ft 527 kts 194°
2026-05-08 16:23 19.41391 -66.59126 40054 ft 528 kts 194°
2026-05-08 16:24 19.34259 -66.60974 40054 ft 528 kts 194°
2026-05-08 16:24 19.27107 -66.62826 40054 ft 528 kts 194°
2026-05-08 16:25 19.20015 -66.64661 40055 ft 528 kts 194°
2026-05-08 16:25 19.12885 -66.66504 40053 ft 528 kts 194°
2026-05-08 16:26 19.05744 -66.68348 40046 ft 528 kts 194°
2026-05-08 16:26 18.98605 -66.70189 40045 ft 528 kts 194°
2026-05-08 16:27 18.94147 -66.71339 40041 ft 528 kts 194°
2026-05-08 16:27 18.87133 -66.73146 40039 ft 529 kts 194°
2026-05-08 16:28 18.79986 -66.74985 40040 ft 529 kts 194°
2026-05-08 16:28 18.72834 -66.76825 40039 ft 529 kts 194°
2026-05-08 16:29 18.65908 -66.78604 40037 ft 529 kts 194°
2026-05-08 16:29 18.58803 -66.80429 40037 ft 529 kts 194°
2026-05-08 16:30 18.51650 -66.82264 40040 ft 529 kts 194°
2026-05-08 16:30 18.44502 -66.84096 40039 ft 529 kts 194°
2026-05-08 16:31 18.37353 -66.85926 40042 ft 529 kts 194°
2026-05-08 16:31 18.30203 -66.87756 40037 ft 529 kts 194°
2026-05-08 16:32 18.23103 -66.89571 40041 ft 528 kts 194°
2026-05-08 16:32 18.15960 -66.91395 40037 ft 528 kts 194°
2026-05-08 16:33 18.08817 -66.93219 40033 ft 528 kts 194°
2026-05-08 16:33 18.01671 -66.95040 40034 ft 529 kts 194°
2026-05-08 16:34 17.94518 -66.96863 40030 ft 529 kts 194°
2026-05-08 16:34 17.87415 -66.98671 40022 ft 529 kts 194°
2026-05-08 16:35 17.80264 -67.00490 40024 ft 529 kts 194°
2026-05-08 16:35 17.73109 -67.02309 40024 ft 529 kts 194°
2026-05-08 16:36 17.65958 -67.04125 40022 ft 529 kts 194°
2026-05-08 16:36 17.58945 -67.05904 40019 ft 529 kts 194°
2026-05-08 16:37 17.51790 -67.07718 40019 ft 529 kts 193°
2026-05-08 16:37 17.44632 -67.09532 40017 ft 529 kts 193°
2026-05-08 16:38 17.37467 -67.11345 40021 ft 530 kts 193°
2026-05-08 16:38 17.30303 -67.13157 40022 ft 530 kts 193°
2026-05-08 16:39 17.23186 -67.14956 40022 ft 529 kts 193°
2026-05-08 16:39 17.16023 -67.16765 40015 ft 530 kts 193°
2026-05-08 16:40 17.08857 -67.18573 40018 ft 530 kts 193°
2026-05-08 16:40 17.01810 -67.20350 40013 ft 509 kts 193°
2026-05-08 16:41 16.94963 -67.22074 40016 ft 513 kts 193°
2026-05-08 16:42 16.84556 -67.24694 40019 ft 513 kts 193°
2026-05-08 16:42 16.77617 -67.26439 40016 ft 513 kts 193°
2026-05-08 16:43 16.70732 -67.28169 40013 ft 513 kts 193°
2026-05-08 16:43 16.63788 -67.29913 40013 ft 513 kts 193°
2026-05-08 16:44 16.56848 -67.31653 40012 ft 513 kts 193°
2026-05-08 16:44 16.49905 -67.33394 40008 ft 513 kts 193°
2026-05-08 16:45 16.43012 -67.35121 40008 ft 513 kts 193°
2026-05-08 16:45 16.36075 -67.36858 40008 ft 513 kts 193°
2026-05-08 16:46 16.29136 -67.38594 40005 ft 513 kts 193°
2026-05-08 16:46 16.22195 -67.40329 40003 ft 513 kts 193°
2026-05-08 16:47 16.15261 -67.42061 40000 ft 512 kts 194°
2026-05-08 16:47 16.08371 -67.43781 40005 ft 513 kts 194°
2026-05-08 16:48 16.01430 -67.45512 39999 ft 513 kts 194°
2026-05-08 16:48 15.94485 -67.47243 39996 ft 513 kts 194°
2026-05-08 16:49 15.87543 -67.48972 39997 ft 513 kts 194°
2026-05-08 16:49 15.80868 -67.51310 40021 ft 512 kts 207°
2026-05-08 16:50 15.74491 -67.54614 40013 ft 511 kts 208°
2026-05-08 16:50 15.68133 -67.57904 40014 ft 511 kts 207°
2026-05-08 16:51 15.61768 -67.61186 40011 ft 511 kts 207°
2026-05-08 16:51 15.55495 -67.64428 40011 ft 511 kts 207°
2026-05-08 16:52 15.49171 -67.67686 40008 ft 511 kts 207°
2026-05-08 16:52 15.42813 -67.70965 40013 ft 512 kts 207°
2026-05-08 16:53 15.33200 -67.75914 40005 ft 514 kts 207°
2026-05-08 16:53 15.26881 -67.79166 40008 ft 514 kts 207°
2026-05-08 16:54 15.20520 -67.82436 40001 ft 514 kts 207°
2026-05-08 16:54 15.14121 -67.85724 40006 ft 513 kts 207°
2026-05-08 16:55 15.07715 -67.89013 40001 ft 513 kts 207°
2026-05-08 16:55 15.01317 -67.92296 40004 ft 513 kts 207°
2026-05-08 16:56 14.94963 -67.95554 40000 ft 513 kts 207°
2026-05-08 16:56 14.88575 -67.98828 39995 ft 512 kts 207°
2026-05-08 16:57 14.82190 -68.02098 39991 ft 512 kts 208°
2026-05-08 16:57 14.75806 -68.05365 39992 ft 512 kts 208°
2026-05-08 16:58 14.69473 -68.08604 39988 ft 511 kts 208°
2026-05-08 16:58 14.63100 -68.11861 39986 ft 510 kts 208°
2026-05-08 16:59 14.56740 -68.15109 39978 ft 510 kts 208°
2026-05-08 16:59 14.50385 -68.18353 39979 ft 510 kts 208°
2026-05-08 17:00 14.44025 -68.21597 39977 ft 510 kts 208°
2026-05-08 17:00 14.37702 -68.24820 39978 ft 510 kts 208°
2026-05-08 17:01 14.31347 -68.28058 39978 ft 509 kts 208°
2026-05-08 17:01 14.24997 -68.31291 39977 ft 509 kts 208°
2026-05-08 17:02 14.18650 -68.34520 39977 ft 509 kts 208°
2026-05-08 17:02 14.12310 -68.37744 39972 ft 508 kts 208°
2026-05-08 17:03 14.06012 -68.40944 39974 ft 508 kts 207°
2026-05-08 17:03 13.99681 -68.44160 39974 ft 507 kts 207°
2026-05-08 17:04 13.93361 -68.47367 39698 ft 502 kts 207°
2026-05-08 17:04 13.90239 -68.48951 38275 ft 505 kts 207°
2026-05-08 17:04 13.87073 -68.50557 37714 ft 504 kts 207°
2026-05-08 17:05 13.83914 -68.52158 37011 ft 508 kts 207°
2026-05-08 17:05 13.80727 -68.53774 36334 ft 515 kts 207°
2026-05-08 17:05 13.77498 -68.55410 35621 ft 518 kts 207°
2026-05-08 17:05 13.74305 -68.57027 34903 ft 521 kts 206°
2026-05-08 17:06 13.71048 -68.58676 34134 ft 523 kts 206°
2026-05-08 17:06 13.67767 -68.60336 33302 ft 526 kts 206°
2026-05-08 17:06 13.64569 -68.61954 32486 ft 527 kts 206°
2026-05-08 17:06 13.61269 -68.63624 31629 ft 531 kts 206°
2026-05-08 17:07 13.57946 -68.65305 30732 ft 534 kts 206°
2026-05-08 17:07 13.54599 -68.66997 29736 ft 537 kts 207°
2026-05-08 17:07 13.51253 -68.68689 28813 ft 536 kts 206°
2026-05-08 17:07 13.47918 -68.70374 27896 ft 533 kts 206°
2026-05-08 17:08 13.44640 -68.72030 27008 ft 531 kts 206°
2026-05-08 17:08 13.41327 -68.73703 26118 ft 529 kts 206°
2026-05-08 17:08 13.38035 -68.75364 25236 ft 527 kts 206°
2026-05-08 17:08 13.34751 -68.77022 24346 ft 525 kts 206°
2026-05-08 17:09 13.31481 -68.78672 23469 ft 523 kts 205°
2026-05-08 17:09 13.28228 -68.80311 22557 ft 513 kts 205°
2026-05-08 17:09 13.25090 -68.81894 21723 ft 492 kts 205°
2026-05-08 17:09 13.22088 -68.83409 20943 ft 472 kts 205°
2026-05-08 17:10 13.19231 -68.84848 20197 ft 455 kts 205°
2026-05-08 17:10 13.16440 -68.86254 19460 ft 438 kts 205°
2026-05-08 17:10 13.13856 -68.87556 18781 ft 414 kts 205°
2026-05-08 17:10 13.11339 -68.88825 18090 ft 393 kts 204°
2026-05-08 17:11 13.08947 -68.90027 17443 ft 373 kts 204°
2026-05-08 17:11 13.06663 -68.91175 16854 ft 361 kts 204°
2026-05-08 17:11 13.04411 -68.92308 16263 ft 362 kts 204°
2026-05-08 17:11 13.02132 -68.93454 15679 ft 366 kts 205°
2026-05-08 17:12 12.99864 -68.94595 15095 ft 358 kts 205°
2026-05-08 17:12 12.97674 -68.95697 14525 ft 357 kts 205°
2026-05-08 17:12 12.95413 -68.96832 13939 ft 363 kts 205°
2026-05-08 17:12 12.93148 -68.97971 13313 ft 364 kts 205°
2026-05-08 17:13 12.90872 -68.99117 12721 ft 363 kts 205°
2026-05-08 17:13 12.88611 -69.00253 12131 ft 362 kts 205°
2026-05-08 17:13 12.86360 -69.01384 11534 ft 360 kts 205°
2026-05-08 17:13 12.84109 -69.02514 10964 ft 359 kts 205°
2026-05-08 17:14 12.81873 -69.03637 10384 ft 358 kts 205°
2026-05-08 17:14 12.79683 -69.04737 10034 ft 349 kts 205°
2026-05-08 17:14 12.77633 -69.05768 9525 ft 333 kts 204°
2026-05-08 17:14 12.75582 -69.06795 9264 ft 334 kts 204°
2026-05-08 17:15 12.73500 -69.07837 8993 ft 328 kts 204°
2026-05-08 17:15 12.71462 -69.08861 8720 ft 322 kts 204°
2026-05-08 17:15 12.69505 -69.09846 8424 ft 302 kts 204°
2026-05-08 17:15 12.67610 -69.10792 8164 ft 303 kts 204°
2026-05-08 17:16 12.65741 -69.11727 7912 ft 297 kts 204°
2026-05-08 17:16 12.63898 -69.12652 7659 ft 294 kts 203°
2026-05-08 17:16 12.62066 -69.13569 7405 ft 292 kts 203°
2026-05-08 17:16 12.60271 -69.14469 7153 ft 289 kts 203°
2026-05-08 17:17 12.58466 -69.15374 6903 ft 287 kts 203°
2026-05-08 17:17 12.56670 -69.16271 6664 ft 286 kts 203°
2026-05-08 17:17 12.54809 -69.16873 6409 ft 277 kts 181°
2026-05-08 17:17 12.52789 -69.16835 6169 ft 311 kts 174°
2026-05-08 17:18 12.50628 -69.16703 5884 ft 306 kts 173°
2026-05-08 17:18 12.48545 -69.16566 5614 ft 294 kts 173°
2026-05-08 17:18 12.46551 -69.16450 5343 ft 276 kts 174°
2026-05-08 17:18 12.44695 -69.16350 5108 ft 264 kts 173°
2026-05-08 17:19 12.42878 -69.16245 4888 ft 261 kts 173°
2026-05-08 17:19 12.41108 -69.16140 4667 ft 258 kts 173°
2026-05-08 17:19 12.39311 -69.16037 4446 ft 256 kts 173°
2026-05-08 17:19 12.37539 -69.15935 4230 ft 257 kts 173°
2026-05-08 17:20 12.35765 -69.15833 3992 ft 252 kts 173°
2026-05-08 17:20 12.34010 -69.15732 3783 ft 257 kts 173°
2026-05-08 17:20 12.32246 -69.15631 3562 ft 253 kts 173°
2026-05-08 17:20 12.30495 -69.15532 3345 ft 250 kts 172°
2026-05-08 17:21 12.28739 -69.15431 3105 ft 255 kts 172°
2026-05-08 17:21 12.26982 -69.15327 2896 ft 253 kts 172°
2026-05-08 17:21 12.25274 -69.15185 2681 ft 247 kts 165°
2026-05-08 17:21 12.23753 -69.14469 2466 ft 239 kts 139°
2026-05-08 17:22 12.22693 -69.13208 2465 ft 235 kts 116°
2026-05-08 17:22 12.22192 -69.11657 2461 ft 223 kts 103°
2026-05-08 17:22 12.21871 -69.10171 2447 ft 198 kts 102°
2026-05-08 17:22 12.21593 -69.08855 2361 ft 195 kts 102°
2026-05-08 17:23 12.21322 -69.07565 2089 ft 177 kts 102°
2026-05-08 17:23 12.21076 -69.06400 1898 ft 163 kts 101°
2026-05-08 17:23 12.20859 -69.05342 1696 ft 146 kts 101°
2026-05-08 17:23 12.20660 -69.04373 1502 ft 136 kts 102°
2026-05-08 17:24 12.20464 -69.03434 1336 ft 131 kts 101°
2026-05-08 17:24 12.20265 -69.02496 1156 ft 134 kts 103°
2026-05-08 17:24 12.20064 -69.01560 991 ft 137 kts 102°
2026-05-08 17:24 12.19875 -69.00625 827 ft 137 kts 105°
2026-05-08 17:25 12.19685 -68.99707 625 ft 136 kts 104°
2026-05-08 17:25 12.19472 -68.98772 416 ft 137 kts 100°
2026-05-08 17:25 12.19289 -68.97824 224 ft 134 kts 103°
2026-05-08 17:25 12.19082 -68.96892 88 ft 134 kts 100°
2026-05-08 17:26 12.18918 -68.96092 50 ft 84 kts 102°
2026-05-08 17:26 12.18845 -68.95741 48 ft 24 kts 102°
2026-05-08 17:26 12.18833 -68.95679 47 ft 10 kts 101°
2026-05-08 17:26 12.18808 -68.95557 46 ft 20 kts 101°
2026-05-08 17:27 12.18765 -68.95431 47 ft 17 kts 127°
2026-05-08 17:27 12.18653 -68.95407 48 ft 34 kts 193°
2026-05-08 17:27 12.18562 -68.95470 49 ft 1 kts 276°
2026-05-08 17:27 12.18569 -68.95477 49 ft 7 kts 307°
2026-05-08 17:28 12.18607 -68.95552 49 ft 13 kts 289°
2026-05-08 17:28 12.18653 -68.95729 47 ft 27 kts 282°
2026-05-08 17:28 12.18676 -68.95837 49 ft 15 kts 281°
2026-05-08 17:28 12.18667 -68.95894 49 ft 5 kts 218°
2026-05-08 17:29 12.18612 -68.95904 49 ft 17 kts 189°
2026-05-08 17:29 12.18581 -68.95911 47 ft 0 kts 193°